Location: Boiro
(42.6475°N, 8.8834°W)
Time: 02:05:20
(UTC+01:00)

Vanguard 3 - Pass Details

Date: 06 December 2021
Orbit: 508 x 3260 km, 33.3° (Epoch: 19 January)

Event Time Altitude Azimuth Distance (km) Brightness Sun altitude
Exits shadow 05:07:04 43° 209° (SSW) 4,078 10.3 -40.4°
Maximum altitude 05:13:47 56° 163° (SSE) 3,620 10.2 -39.1°
Drops below altitude 10° 05:30:16 10° 92° (E) 5,313 12.0 -36.1°
Sets 05:33:52 0° 89° (E) 6,030 12.6 -35.5°
